TimeEDT,TemperatureF,Dew PointF,Humidity,Sea Level PressureIn,VisibilityMPH,Wind Direction,Wind SpeedMPH,Gust SpeedMPH,PrecipitationIn,Events,Conditions,WindDirDegrees,DateUTC
12:03 AM,39.2,28.4,65,29.81,10.0,West,13.8,21.9,N/A,,Overcast,270,2013-04-20 04:03:00
12:54 AM,37.9,27.0,65,29.82,10.0,WSW,12.7,-,N/A,,Overcast,250,2013-04-20 04:54:00
1:54 AM,37.0,27.0,67,29.82,10.0,West,17.3,27.6,N/A,,Overcast,260,2013-04-20 05:54:00
2:05 AM,35.6,28.4,75,29.82,9.0,West,18.4,32.2,0.00,Snow,Light Snow,280,2013-04-20 06:05:00
2:54 AM,34.0,28.9,82,29.85,3.0,West,13.8,21.9,0.00,Snow,Light Snow,270,2013-04-20 06:54:00
3:23 AM,33.8,30.2,87,29.84,2.5,West,12.7,-,0.00,Snow,Light Snow,260,2013-04-20 07:23:00
3:31 AM,33.8,30.2,87,29.84,2.5,West,9.2,-,0.01,Snow,Light Snow,260,2013-04-20 07:31:00
3:38 AM,32.0,30.2,93,29.85,2.0,West,11.5,18.4,0.01,Snow,Light Snow,280,2013-04-20 07:38:00
3:40 AM,32.0,30.2,93,29.85,1.5,West,12.7,21.9,0.01,Snow,Light Snow,280,2013-04-20 07:40:00
3:52 AM,32.0,30.2,93,29.86,2.0,West,20.7,26.5,0.01,Snow,Light Snow,270,2013-04-20 07:52:00
3:54 AM,32.0,30.0,92,29.89,3.0,West,18.4,31.1,0.01,Snow,Light Snow,260,2013-04-20 07:54:00
4:03 AM,32.0,30.2,93,29.86,3.0,West,19.6,31.1,0.01,Snow,Light Snow,260,2013-04-20 08:03:00
4:17 AM,32.0,28.4,87,29.87,9.0,West,13.8,28.8,0.01,,Overcast,260,2013-04-20 08:17:00
4:35 AM,32.0,28.4,87,29.87,10.0,West,17.3,28.8,0.01,,Overcast,260,2013-04-20 08:35:00
4:54 AM,32.0,26.1,79,29.92,10.0,West,17.3,28.8,0.01,,Mostly Cloudy,260,2013-04-20 08:54:00
5:54 AM,30.9,25.0,79,29.93,10.0,West,13.8,24.2,N/A,,Mostly Cloudy,260,2013-04-20 09:54:00
6:08 AM,30.2,24.8,80,29.88,10.0,WSW,11.5,21.9,N/A,,Mostly Cloudy,240,2013-04-20 10:08:00
6:54 AM,32.0,25.0,75,29.95,10.0,West,15.0,25.3,N/A,,Overcast,260,2013-04-20 10:54:00
7:03 AM,32.0,24.8,75,29.90,10.0,WSW,16.1,28.8,N/A,,Overcast,250,2013-04-20 11:03:00
7:54 AM,32.0,25.0,75,29.97,10.0,WSW,10.4,26.5,N/A,,Overcast,250,2013-04-20 11:54:00
8:54 AM,33.1,26.1,75,30.00,10.0,West,19.6,29.9,0.00,,Overcast,270,2013-04-20 12:54:00
9:47 AM,33.8,24.8,70,29.97,10.0,West,19.6,33.4,N/A,,Overcast,260,2013-04-20 13:47:00
9:54 AM,34.0,24.1,67,30.02,10.0,West,25.3,34.5,N/A,,Overcast,270,2013-04-20 13:54:00
10:54 AM,36.0,21.9,57,30.06,10.0,West,21.9,27.6,N/A,,Overcast,270,2013-04-20 14:54:00
11:45 AM,35.6,26.6,70,30.03,10.0,West,15.0,26.5,N/A,,Overcast,260,2013-04-20 15:45:00
11:54 AM,36.0,26.1,67,30.08,10.0,West,20.7,29.9,N/A,,Overcast,280,2013-04-20 15:54:00
12:15 PM,37.4,26.6,65,30.03,10.0,West,19.6,29.9,N/A,,Mostly Cloudy,260,2013-04-20 16:15:00
12:54 PM,37.9,21.9,53,30.09,10.0,West,15.0,29.9,N/A,,Overcast,280,2013-04-20 16:54:00
1:54 PM,39.0,21.9,50,30.11,10.0,WNW,17.3,24.2,N/A,,Overcast,290,2013-04-20 17:54:00
2:54 PM,41.0,21.0,45,30.12,10.0,WNW,18.4,25.3,N/A,,Overcast,290,2013-04-20 18:54:00
3:54 PM,41.0,19.9,43,30.14,10.0,WNW,18.4,28.8,N/A,,Mostly Cloudy,290,2013-04-20 19:54:00
4:33 PM,41.0,19.4,42,30.10,10.0,WNW,15.0,29.9,N/A,,Overcast,290,2013-04-20 20:33:00
4:54 PM,42.1,19.9,41,30.17,10.0,West,13.8,27.6,N/A,,Overcast,270,2013-04-20 20:54:00
5:54 PM,39.9,21.9,49,30.20,10.0,NW,21.9,26.5,N/A,,Overcast,310,2013-04-20 21:54:00
6:54 PM,37.9,19.9,48,30.24,10.0,West,19.6,27.6,N/A,,Overcast,280,2013-04-20 22:54:00
7:54 PM,36.0,19.0,50,30.27,10.0,NW,11.5,-,N/A,,Mostly Cloudy,310,2013-04-20 23:54:00
8:54 PM,35.1,19.0,52,30.32,10.0,WNW,12.7,19.6,N/A,,Mostly Cloudy,290,2013-04-21 00:54:00
9:54 PM,33.1,19.0,56,30.34,10.0,WNW,8.1,-,N/A,,Partly Cloudy,300,2013-04-21 01:54:00
10:54 PM,33.1,19.0,56,30.36,10.0,North,8.1,-,N/A,,Mostly Cloudy,350,2013-04-21 02:54:00
11:54 PM,30.0,19.0,64,30.40,10.0,North,5.8,-,N/A,,Clear,10,2013-04-21 03:54:00